Year,Month,Day,Hour,Minute,Value (Times are PST for temperature in C)
2015,07,06,00,00,18.50
2015,07,06,00,01,18.60
2015,07,06,00,02,18.60
2015,07,06,00,03,18.60
2015,07,06,00,04,18.70
2015,07,06,00,05,18.70
2015,07,06,00,06,18.80
2015,07,06,00,07,18.80
2015,07,06,00,08,18.80
2015,07,06,00,09,18.90
2015,07,06,00,10,18.90
2015,07,06,00,11,19.00
2015,07,06,00,12,19.00
2015,07,06,00,13,19.10
2015,07,06,00,14,19.10
2015,07,06,00,15,19.20
2015,07,06,00,16,19.20
2015,07,06,00,17,19.30
2015,07,06,00,18,19.30
2015,07,06,00,19,19.30
2015,07,06,00,20,19.30
2015,07,06,00,21,19.30
2015,07,06,00,22,19.40
2015,07,06,00,23,19.40
2015,07,06,00,24,19.40
2015,07,06,00,25,19.40
2015,07,06,00,26,19.40
2015,07,06,00,27,19.40
2015,07,06,00,28,19.40
2015,07,06,00,29,19.40
2015,07,06,00,30,19.40
2015,07,06,00,31,19.40
2015,07,06,00,32,19.40
2015,07,06,00,33,19.40
2015,07,06,00,34,19.40
2015,07,06,00,35,19.40
2015,07,06,00,36,19.40
2015,07,06,00,37,19.40
2015,07,06,00,38,19.40
2015,07,06,00,39,19.40
2015,07,06,00,40,19.40
2015,07,06,00,41,19.40
2015,07,06,00,42,19.40
2015,07,06,00,43,19.40
2015,07,06,00,44,19.40
2015,07,06,00,45,19.40
2015,07,06,00,46,19.40
2015,07,06,00,47,19.40
2015,07,06,00,48,19.40
2015,07,06,00,49,19.40
2015,07,06,00,50,19.40
2015,07,06,00,51,19.40
2015,07,06,00,52,19.40
2015,07,06,00,53,19.30
2015,07,06,00,54,19.30
2015,07,06,00,55,19.30
2015,07,06,00,56,19.30
2015,07,06,00,57,19.30
2015,07,06,00,58,19.30
2015,07,06,00,59,19.30
2015,07,06,01,00,19.20
2015,07,06,01,01,19.20
2015,07,06,01,02,19.20
2015,07,06,01,03,19.20
2015,07,06,01,04,19.20
2015,07,06,01,05,19.20
2015,07,06,01,06,19.20
2015,07,06,01,07,19.20
2015,07,06,01,08,19.20
2015,07,06,01,09,19.20
2015,07,06,01,10,19.20
2015,07,06,01,11,19.20
2015,07,06,01,12,19.20
2015,07,06,01,13,19.10
2015,07,06,01,14,19.10
2015,07,06,01,15,19.10
2015,07,06,01,16,19.10
2015,07,06,01,17,19.10
2015,07,06,01,18,19.10
2015,07,06,01,19,19.10
2015,07,06,01,20,19.10
2015,07,06,01,21,19.00
2015,07,06,01,22,19.00
2015,07,06,01,23,19.00
2015,07,06,01,24,18.90
2015,07,06,01,25,18.90
2015,07,06,01,26,18.90
2015,07,06,01,27,18.90
2015,07,06,01,28,18.80
2015,07,06,01,29,18.80
2015,07,06,01,30,18.80
2015,07,06,01,31,18.80
2015,07,06,01,32,18.80
2015,07,06,01,33,18.70
2015,07,06,01,34,18.70
2015,07,06,01,35,18.70
2015,07,06,01,36,18.70
2015,07,06,01,37,18.70
2015,07,06,01,38,18.60
2015,07,06,01,39,18.60
2015,07,06,01,40,18.60
2015,07,06,01,41,18.60
2015,07,06,01,42,18.50
2015,07,06,01,43,18.50
2015,07,06,01,44,18.50
2015,07,06,01,45,18.50
2015,07,06,01,46,18.50
2015,07,06,01,47,18.40
2015,07,06,01,48,18.40
2015,07,06,01,49,18.40
2015,07,06,01,50,18.40
2015,07,06,01,51,18.30
2015,07,06,01,52,18.30
2015,07,06,01,53,18.30
2015,07,06,01,54,18.30
2015,07,06,01,55,18.30
2015,07,06,01,56,18.20
2015,07,06,01,57,18.20
2015,07,06,01,58,18.20
2015,07,06,01,59,18.20
2015,07,06,02,00,18.20
2015,07,06,02,01,18.20
2015,07,06,02,02,18.10
2015,07,06,02,03,18.10
2015,07,06,02,04,18.10
2015,07,06,02,05,18.10
2015,07,06,02,06,18.10
2015,07,06,02,07,18.00
2015,07,06,02,08,18.00
2015,07,06,02,09,18.00
2015,07,06,02,10,18.00
2015,07,06,02,11,17.90
2015,07,06,02,12,17.90
2015,07,06,02,13,17.90
2015,07,06,02,14,17.90
2015,07,06,02,15,17.90
2015,07,06,02,16,17.90
2015,07,06,02,17,17.90
2015,07,06,02,18,17.90
2015,07,06,02,19,17.90
2015,07,06,02,20,17.80
2015,07,06,02,21,17.80
2015,07,06,02,22,17.80
2015,07,06,02,23,17.80
2015,07,06,02,24,17.80
2015,07,06,02,25,17.80
2015,07,06,02,26,17.80
2015,07,06,02,27,17.80
2015,07,06,02,28,17.90
2015,07,06,02,29,17.90
2015,07,06,02,30,17.80
2015,07,06,02,31,17.80
2015,07,06,02,32,17.80
2015,07,06,02,33,17.80
2015,07,06,02,34,17.80
2015,07,06,02,35,17.80
2015,07,06,02,36,17.80
2015,07,06,02,37,17.80
2015,07,06,02,38,17.80
2015,07,06,02,39,17.80
2015,07,06,02,40,17.80
2015,07,06,02,41,17.80
2015,07,06,02,42,17.80
2015,07,06,02,43,17.80
2015,07,06,02,44,17.80
2015,07,06,02,45,17.80
2015,07,06,02,46,17.80
2015,07,06,02,47,17.80
2015,07,06,02,48,17.80
2015,07,06,02,49,17.80
2015,07,06,02,50,17.80
2015,07,06,02,51,17.80
2015,07,06,02,52,17.80
2015,07,06,02,53,17.80
2015,07,06,02,54,17.80
2015,07,06,02,55,17.80
2015,07,06,02,56,17.80
2015,07,06,02,57,17.70
2015,07,06,02,58,17.70
2015,07,06,02,59,17.70
2015,07,06,03,00,17.70
2015,07,06,03,01,17.70
2015,07,06,03,02,17.70
2015,07,06,03,03,17.70
2015,07,06,03,04,17.70
2015,07,06,03,05,17.70
2015,07,06,03,06,17.70
2015,07,06,03,07,17.70
2015,07,06,03,08,17.60
2015,07,06,03,09,17.60
2015,07,06,03,10,17.60
2015,07,06,03,11,17.60
2015,07,06,03,12,17.50
2015,07,06,03,13,17.50
2015,07,06,03,14,17.40
2015,07,06,03,15,17.40
2015,07,06,03,16,17.40
2015,07,06,03,17,17.30
2015,07,06,03,18,17.30
2015,07,06,03,19,17.30
2015,07,06,03,20,17.30
2015,07,06,03,21,17.30
2015,07,06,03,22,17.20
2015,07,06,03,23,17.20
2015,07,06,03,24,17.20
2015,07,06,03,25,17.20
2015,07,06,03,26,17.20
2015,07,06,03,27,17.10
2015,07,06,03,28,17.10
2015,07,06,03,29,17.10
2015,07,06,03,30,17.10
2015,07,06,03,31,17.00
2015,07,06,03,32,17.00
2015,07,06,03,33,17.00
2015,07,06,03,34,16.90
2015,07,06,03,35,16.90
2015,07,06,03,36,16.90
2015,07,06,03,37,16.90
2015,07,06,03,38,16.90
2015,07,06,03,39,16.80
2015,07,06,03,40,16.80
2015,07,06,03,41,16.80
2015,07,06,03,42,16.80
2015,07,06,03,43,16.70
2015,07,06,03,44,16.70
2015,07,06,03,45,16.70
2015,07,06,03,46,16.60
2015,07,06,03,47,16.60
2015,07,06,03,48,16.60
2015,07,06,03,49,16.50
2015,07,06,03,50,16.40
2015,07,06,03,51,16.40
2015,07,06,03,52,16.40
2015,07,06,03,53,16.30
2015,07,06,03,54,16.30
2015,07,06,03,55,16.30
2015,07,06,03,56,16.20
2015,07,06,03,57,16.20
2015,07,06,03,58,16.10
2015,07,06,03,59,16.10
2015,07,06,04,00,16.10
2015,07,06,04,01,16.10
2015,07,06,04,02,16.00
2015,07,06,04,03,16.00
2015,07,06,04,04,16.00
2015,07,06,04,05,15.90
2015,07,06,04,06,15.90
2015,07,06,04,07,15.90
2015,07,06,04,08,15.80
2015,07,06,04,09,15.80
2015,07,06,04,10,15.80
2015,07,06,04,11,15.80
2015,07,06,04,12,15.70
2015,07,06,04,13,15.70
2015,07,06,04,14,15.70
2015,07,06,04,15,15.60
2015,07,06,04,16,15.60
2015,07,06,04,17,15.60
2015,07,06,04,18,15.50
2015,07,06,04,19,15.50
2015,07,06,04,20,15.50
2015,07,06,04,21,15.40
2015,07,06,04,22,15.40
2015,07,06,04,23,15.40
2015,07,06,04,24,15.40
2015,07,06,04,25,15.40
2015,07,06,04,26,15.30
2015,07,06,04,27,15.30
2015,07,06,04,28,15.30
2015,07,06,04,29,15.30
2015,07,06,04,30,15.30
2015,07,06,04,31,15.30
2015,07,06,04,32,15.30
2015,07,06,04,33,15.20
2015,07,06,04,34,15.20
2015,07,06,04,35,15.20
2015,07,06,04,36,15.20
2015,07,06,04,37,15.20
2015,07,06,04,38,15.20
2015,07,06,04,39,15.20
2015,07,06,04,40,15.20
2015,07,06,04,41,15.10
2015,07,06,04,42,15.10
2015,07,06,04,43,15.10
2015,07,06,04,44,15.10
2015,07,06,04,45,15.10
2015,07,06,04,46,15.10
2015,07,06,04,47,15.00
2015,07,06,04,48,15.00
2015,07,06,04,49,15.00
2015,07,06,04,50,15.00
2015,07,06,04,51,15.00
2015,07,06,04,52,14.90
2015,07,06,04,53,14.90
2015,07,06,04,54,14.90
2015,07,06,04,55,14.90
2015,07,06,04,56,14.90
2015,07,06,04,57,14.90
2015,07,06,04,58,14.90
2015,07,06,04,59,14.90
2015,07,06,05,00,14.80
2015,07,06,05,01,14.80
2015,07,06,05,02,14.80
2015,07,06,05,03,14.80
2015,07,06,05,04,14.80
2015,07,06,05,05,14.80
2015,07,06,05,06,14.80
2015,07,06,05,07,14.80
2015,07,06,05,08,14.80
2015,07,06,05,09,14.80
2015,07,06,05,10,14.80
2015,07,06,05,11,14.80
2015,07,06,05,12,14.70
2015,07,06,05,13,14.70
2015,07,06,05,14,14.70
2015,07,06,05,15,14.70
2015,07,06,05,16,14.70
2015,07,06,05,17,14.70
2015,07,06,05,18,14.60
2015,07,06,05,19,14.60
2015,07,06,05,20,14.60
2015,07,06,05,21,14.60
2015,07,06,05,22,14.60
2015,07,06,05,23,14.50
2015,07,06,05,24,14.50
2015,07,06,05,25,14.50
2015,07,06,05,26,14.50
2015,07,06,05,27,14.50
2015,07,06,05,28,14.50
2015,07,06,05,29,14.50
2015,07,06,05,30,14.40
2015,07,06,05,31,14.40
2015,07,06,05,32,14.40
2015,07,06,05,33,14.40
2015,07,06,05,34,14.40
2015,07,06,05,35,14.40
2015,07,06,05,36,14.40
2015,07,06,05,37,14.40
2015,07,06,05,38,14.30
2015,07,06,05,39,14.30
2015,07,06,05,40,14.30
2015,07,06,05,41,14.30
2015,07,06,05,42,14.30
2015,07,06,05,43,14.30
2015,07,06,05,44,14.30
2015,07,06,05,45,14.30
2015,07,06,05,46,14.30
2015,07,06,05,47,14.30
2015,07,06,05,48,14.30
2015,07,06,05,49,14.30
2015,07,06,05,50,14.30
2015,07,06,05,51,14.20
2015,07,06,05,52,14.20
2015,07,06,05,53,14.20
2015,07,06,05,54,14.20
2015,07,06,05,55,14.20
2015,07,06,05,56,14.20
2015,07,06,05,57,14.20
2015,07,06,05,58,14.20
2015,07,06,05,59,14.20
2015,07,06,06,00,14.10
2015,07,06,06,01,14.10
2015,07,06,06,02,14.10
2015,07,06,06,03,14.10
2015,07,06,06,04,14.10
2015,07,06,06,05,14.10
2015,07,06,06,06,14.10
2015,07,06,06,07,14.10
2015,07,06,06,08,14.10
2015,07,06,06,09,14.10
2015,07,06,06,10,14.10
2015,07,06,06,11,14.10
2015,07,06,06,12,14.10
2015,07,06,06,13,14.10
2015,07,06,06,14,14.10
2015,07,06,06,15,14.00
2015,07,06,06,16,14.00
2015,07,06,06,17,14.00
2015,07,06,06,18,14.00
2015,07,06,06,19,14.00
2015,07,06,06,20,14.00
2015,07,06,06,21,14.00
2015,07,06,06,22,14.00
2015,07,06,06,23,14.00
2015,07,06,06,24,14.00
2015,07,06,06,25,14.00
2015,07,06,06,26,14.10
2015,07,06,06,27,14.10
2015,07,06,06,28,14.10
2015,07,06,06,29,14.10
2015,07,06,06,30,14.10
2015,07,06,06,31,14.10
2015,07,06,06,32,14.10
2015,07,06,06,33,14.10
2015,07,06,06,34,14.10
2015,07,06,06,35,14.10
2015,07,06,06,36,14.10
2015,07,06,06,37,14.10
2015,07,06,06,38,14.10
2015,07,06,06,39,14.10
2015,07,06,06,40,14.20
2015,07,06,06,41,14.20
2015,07,06,06,42,14.20
2015,07,06,06,43,14.20
2015,07,06,06,44,14.20
2015,07,06,06,45,14.20
2015,07,06,06,46,14.20
2015,07,06,06,47,14.20
2015,07,06,06,48,14.20
2015,07,06,06,49,14.30
2015,07,06,06,50,14.30
2015,07,06,06,51,14.30
2015,07,06,06,52,14.40
2015,07,06,06,53,14.40
2015,07,06,06,54,14.40
2015,07,06,06,55,14.50
2015,07,06,06,56,14.60
2015,07,06,06,57,14.60
2015,07,06,06,58,14.60
2015,07,06,06,59,14.70
2015,07,06,07,00,14.70
2015,07,06,07,01,14.70
2015,07,06,07,02,14.80
2015,07,06,07,03,14.80
2015,07,06,07,04,14.90
2015,07,06,07,05,15.00
2015,07,06,07,06,15.00
2015,07,06,07,07,15.10
2015,07,06,07,08,15.10
2015,07,06,07,09,15.20
2015,07,06,07,10,15.20
2015,07,06,07,11,15.20
2015,07,06,07,12,15.30
2015,07,06,07,13,15.30
2015,07,06,07,14,15.30
2015,07,06,07,15,15.30
2015,07,06,07,16,15.40
2015,07,06,07,17,15.40
2015,07,06,07,18,15.40
2015,07,06,07,19,15.40
2015,07,06,07,20,15.50
2015,07,06,07,21,15.50
2015,07,06,07,22,15.50
2015,07,06,07,23,15.50
2015,07,06,07,24,15.50
2015,07,06,07,25,15.50
2015,07,06,07,26,15.60
2015,07,06,07,27,15.60
2015,07,06,07,28,15.60
2015,07,06,07,29,15.60
2015,07,06,07,30,15.60
2015,07,06,07,31,15.60
2015,07,06,07,32,15.60
2015,07,06,07,33,15.60
2015,07,06,07,34,15.60
2015,07,06,07,35,15.60
2015,07,06,07,36,15.70
2015,07,06,07,37,15.70
2015,07,06,07,38,15.70
2015,07,06,07,39,15.70
2015,07,06,07,40,15.70
2015,07,06,07,41,15.70
2015,07,06,07,42,15.70
2015,07,06,07,43,15.70
2015,07,06,07,44,15.70
2015,07,06,07,45,15.70
2015,07,06,07,46,15.80
2015,07,06,07,47,15.80
2015,07,06,07,48,15.80
2015,07,06,07,49,15.80
2015,07,06,07,50,15.80
2015,07,06,07,51,15.90
2015,07,06,07,52,15.90
2015,07,06,07,53,15.90
2015,07,06,07,54,15.90
2015,07,06,07,55,16.00
2015,07,06,07,56,16.00
2015,07,06,07,57,16.00
2015,07,06,07,58,16.10
2015,07,06,07,59,16.10
2015,07,06,08,00,16.10
2015,07,06,08,01,16.20
2015,07,06,08,02,16.20
2015,07,06,08,03,16.30
2015,07,06,08,04,16.30
2015,07,06,08,05,16.30
2015,07,06,08,06,16.40
2015,07,06,08,07,16.40
2015,07,06,08,08,16.40
2015,07,06,08,09,16.50
2015,07,06,08,10,16.50
2015,07,06,08,11,16.60
2015,07,06,08,12,16.60
2015,07,06,08,13,16.60
2015,07,06,08,14,16.70
2015,07,06,08,15,16.70
2015,07,06,08,16,16.70
2015,07,06,08,17,16.70
2015,07,06,08,18,16.80
2015,07,06,08,19,16.80
2015,07,06,08,20,16.80
2015,07,06,08,21,16.80
2015,07,06,08,22,16.80
2015,07,06,08,23,16.90
2015,07,06,08,24,16.90
2015,07,06,08,25,16.90
2015,07,06,08,26,16.90
2015,07,06,08,27,16.90
2015,07,06,08,28,17.00
2015,07,06,08,29,17.00
2015,07,06,08,30,17.00
2015,07,06,08,31,17.10
2015,07,06,08,32,17.10
2015,07,06,08,33,17.10
2015,07,06,08,34,17.20
2015,07,06,08,35,17.20
2015,07,06,08,36,17.20
2015,07,06,08,37,17.20
2015,07,06,08,38,17.30
2015,07,06,08,39,17.30
2015,07,06,08,40,17.40
2015,07,06,08,41,17.40
2015,07,06,08,42,17.50
2015,07,06,08,43,17.60
2015,07,06,08,44,17.60
2015,07,06,08,45,17.60
2015,07,06,08,46,17.70
2015,07,06,08,47,17.70
2015,07,06,08,48,17.70
2015,07,06,08,49,17.80
2015,07,06,08,50,17.80
2015,07,06,08,51,17.80
2015,07,06,08,52,17.80
2015,07,06,08,53,17.90
2015,07,06,08,54,17.90
2015,07,06,08,55,17.90
2015,07,06,08,56,17.90
2015,07,06,08,57,18.00
2015,07,06,08,58,18.00
2015,07,06,08,59,18.10
2015,07,06,09,00,18.10
2015,07,06,09,01,18.10
2015,07,06,09,02,18.20
2015,07,06,09,03,18.20
2015,07,06,09,04,18.30
2015,07,06,09,05,18.30
2015,07,06,09,06,18.40
2015,07,06,09,07,18.40
2015,07,06,09,08,18.50
2015,07,06,09,09,18.50
2015,07,06,09,10,18.60
2015,07,06,09,11,18.60
2015,07,06,09,12,18.70
2015,07,06,09,13,18.80
2015,07,06,09,14,18.80
2015,07,06,09,15,18.90
2015,07,06,09,16,18.90
2015,07,06,09,17,19.00
2015,07,06,09,18,19.00
2015,07,06,09,19,19.10
2015,07,06,09,20,19.10
2015,07,06,09,21,19.20
2015,07,06,09,22,19.20
2015,07,06,09,23,19.30
2015,07,06,09,24,19.30
2015,07,06,09,25,19.30
2015,07,06,09,26,19.30
2015,07,06,09,27,19.40
2015,07,06,09,28,19.40
2015,07,06,09,29,19.40
2015,07,06,09,30,19.50
2015,07,06,09,31,19.50
2015,07,06,09,32,19.60
2015,07,06,09,33,19.60
2015,07,06,09,34,19.70
2015,07,06,09,35,19.70
2015,07,06,09,36,19.70
2015,07,06,09,37,19.80
2015,07,06,09,38,19.80
2015,07,06,09,39,19.80
2015,07,06,09,40,19.90
2015,07,06,09,41,19.90
2015,07,06,09,42,20.00
2015,07,06,09,43,20.00
2015,07,06,09,44,20.10
2015,07,06,09,45,20.10
2015,07,06,09,46,20.10
2015,07,06,09,47,20.20
2015,07,06,09,48,20.20
2015,07,06,09,49,20.30
2015,07,06,09,50,20.30
2015,07,06,09,51,20.30
2015,07,06,09,52,20.40
2015,07,06,09,53,20.40
2015,07,06,09,54,20.50
2015,07,06,09,55,20.50
2015,07,06,09,56,20.60
2015,07,06,09,57,20.60
2015,07,06,09,58,20.70
2015,07,06,09,59,20.70
2015,07,06,10,00,20.70
2015,07,06,10,01,20.80
2015,07,06,10,02,20.80
2015,07,06,10,03,20.80
2015,07,06,10,04,20.90
2015,07,06,10,05,20.90
2015,07,06,10,06,20.90
2015,07,06,10,07,20.90
2015,07,06,10,08,20.90
2015,07,06,10,09,20.90
2015,07,06,10,10,20.90
2015,07,06,10,11,20.90
2015,07,06,10,12,20.90
2015,07,06,10,13,20.90
2015,07,06,10,14,20.90
2015,07,06,10,15,20.90
2015,07,06,10,16,21.00
2015,07,06,10,17,21.10
2015,07,06,10,18,21.10
2015,07,06,10,19,21.20
2015,07,06,10,20,21.20
2015,07,06,10,21,21.20
2015,07,06,10,22,21.20
2015,07,06,10,23,21.20
2015,07,06,10,24,21.20
2015,07,06,10,25,21.20
2015,07,06,10,26,21.20
2015,07,06,10,27,21.20
2015,07,06,10,28,21.20
2015,07,06,10,29,21.20
2015,07,06,10,30,21.20
2015,07,06,10,31,21.20
2015,07,06,10,32,21.30
2015,07,06,10,33,21.30
2015,07,06,10,34,21.30
2015,07,06,10,35,21.40
2015,07,06,10,36,21.40
2015,07,06,10,37,21.50
2015,07,06,10,38,21.50
2015,07,06,10,39,21.60
2015,07,06,10,40,21.60
2015,07,06,10,41,21.60
2015,07,06,10,42,21.60
2015,07,06,10,43,21.60
2015,07,06,10,44,21.60
2015,07,06,10,45,21.60
2015,07,06,10,46,21.70
2015,07,06,10,47,21.70
2015,07,06,10,48,21.80
2015,07,06,10,49,21.80
2015,07,06,10,50,21.80
2015,07,06,10,51,21.80
2015,07,06,10,52,21.80
2015,07,06,10,53,21.90
2015,07,06,10,54,21.90
2015,07,06,10,55,21.90
2015,07,06,10,56,21.90
2015,07,06,10,57,22.00
2015,07,06,10,58,22.00
2015,07,06,10,59,21.90
2015,07,06,11,00,21.80
2015,07,06,11,01,21.70
2015,07,06,11,02,21.70
2015,07,06,11,03,21.60
2015,07,06,11,04,21.50
2015,07,06,11,05,21.40
2015,07,06,11,06,21.40
2015,07,06,11,07,21.40
2015,07,06,11,08,21.40
2015,07,06,11,09,21.40
2015,07,06,11,10,21.40
2015,07,06,11,11,21.40
2015,07,06,11,12,21.40
2015,07,06,11,13,21.40
2015,07,06,11,14,21.40
2015,07,06,11,15,21.40
2015,07,06,11,16,21.40
2015,07,06,11,17,21.30
2015,07,06,11,18,21.30
2015,07,06,11,19,21.30
2015,07,06,11,20,21.30
2015,07,06,11,21,21.30
2015,07,06,11,22,21.40
2015,07,06,11,23,21.40
2015,07,06,11,24,21.50
2015,07,06,11,25,21.50
2015,07,06,11,26,21.50
2015,07,06,11,27,21.50
2015,07,06,11,28,21.50
2015,07,06,11,29,21.50
2015,07,06,11,30,21.40
2015,07,06,11,31,21.40
2015,07,06,11,32,21.40
2015,07,06,11,33,21.40
2015,07,06,11,34,21.40
2015,07,06,11,35,21.50
2015,07,06,11,36,21.50
2015,07,06,11,37,21.50
2015,07,06,11,38,21.50
2015,07,06,11,39,21.50
2015,07,06,11,40,21.60
2015,07,06,11,41,21.60
2015,07,06,11,42,21.70
2015,07,06,11,43,21.70
2015,07,06,11,44,21.70
2015,07,06,11,45,21.70
2015,07,06,11,46,21.70
2015,07,06,11,47,21.70
2015,07,06,11,48,21.80
2015,07,06,11,49,21.90
2015,07,06,11,50,21.90
2015,07,06,11,51,22.00
2015,07,06,11,52,22.10
2015,07,06,11,53,22.20
2015,07,06,11,54,22.20
2015,07,06,11,55,22.30
2015,07,06,11,56,22.40
2015,07,06,11,57,22.50
2015,07,06,11,58,22.60
2015,07,06,11,59,22.70
2015,07,06,12,00,22.70
2015,07,06,12,01,22.80
2015,07,06,12,02,22.80
2015,07,06,12,03,22.80
2015,07,06,12,04,22.80
2015,07,06,12,05,22.80
2015,07,06,12,06,22.80
2015,07,06,12,07,22.80
2015,07,06,12,08,22.80
2015,07,06,12,09,22.80
2015,07,06,12,10,22.80
2015,07,06,12,11,22.80
2015,07,06,12,12,22.80
2015,07,06,12,13,22.80
2015,07,06,12,14,22.80
2015,07,06,12,15,22.80
2015,07,06,12,16,22.90
2015,07,06,12,17,22.90
2015,07,06,12,18,22.90
2015,07,06,12,19,22.90
2015,07,06,12,20,23.00
2015,07,06,12,21,23.00
2015,07,06,12,22,23.00
2015,07,06,12,23,23.00
2015,07,06,12,24,23.00
2015,07,06,12,25,23.00
2015,07,06,12,26,23.00
2015,07,06,12,27,23.10
2015,07,06,12,28,23.10
2015,07,06,12,29,23.10
2015,07,06,12,30,23.10
2015,07,06,12,31,23.00
2015,07,06,12,32,23.00
2015,07,06,12,33,22.90
2015,07,06,12,34,22.90
2015,07,06,12,35,22.90
2015,07,06,12,36,22.90
2015,07,06,12,37,22.90
2015,07,06,12,38,22.90
2015,07,06,12,39,22.90
2015,07,06,12,40,22.90
2015,07,06,12,41,22.90
2015,07,06,12,42,22.90
2015,07,06,12,43,22.90
2015,07,06,12,44,22.80
2015,07,06,12,45,22.80
2015,07,06,12,46,22.80
2015,07,06,12,47,22.70
2015,07,06,12,48,22.70
2015,07,06,12,49,22.70
2015,07,06,12,50,22.60
2015,07,06,12,51,22.60
2015,07,06,12,52,22.50
2015,07,06,12,53,22.50
2015,07,06,12,54,22.40
2015,07,06,12,55,22.40
2015,07,06,12,56,22.30
2015,07,06,12,57,22.30
2015,07,06,12,58,22.20
2015,07,06,12,59,22.20
2015,07,06,13,00,22.20
2015,07,06,13,01,22.20
2015,07,06,13,02,22.20
2015,07,06,13,03,22.20
2015,07,06,13,04,22.20
2015,07,06,13,05,22.20
2015,07,06,13,06,22.20
2015,07,06,13,07,22.30
2015,07,06,13,08,22.30
2015,07,06,13,09,22.30
2015,07,06,13,10,22.30
2015,07,06,13,11,22.30
2015,07,06,13,12,22.30
2015,07,06,13,13,22.30
2015,07,06,13,14,22.30
2015,07,06,13,15,22.30
2015,07,06,13,16,22.30
2015,07,06,13,17,22.40
2015,07,06,13,18,22.40
2015,07,06,13,19,22.50
2015,07,06,13,20,22.50
2015,07,06,13,21,22.60
2015,07,06,13,22,22.60
2015,07,06,13,23,22.60
2015,07,06,13,24,22.70
2015,07,06,13,25,22.70
2015,07,06,13,26,22.70
2015,07,06,13,27,22.80
2015,07,06,13,28,22.80
2015,07,06,13,29,22.80
2015,07,06,13,30,22.90
2015,07,06,13,31,22.90
2015,07,06,13,32,22.90
2015,07,06,13,33,23.00
2015,07,06,13,34,23.00
2015,07,06,13,35,23.10
2015,07,06,13,36,23.10
2015,07,06,13,37,23.20
2015,07,06,13,38,23.30
2015,07,06,13,39,23.40
2015,07,06,13,40,23.50
2015,07,06,13,41,23.60
2015,07,06,13,42,23.60
2015,07,06,13,43,23.60
2015,07,06,13,44,23.60
2015,07,06,13,45,23.60
2015,07,06,13,46,23.50
2015,07,06,13,47,23.40
2015,07,06,13,48,23.40
2015,07,06,13,49,23.30
2015,07,06,13,50,23.30
2015,07,06,13,51,23.20
2015,07,06,13,52,23.10
2015,07,06,13,53,23.00
2015,07,06,13,54,22.90
2015,07,06,13,55,22.80
2015,07,06,13,56,22.80
2015,07,06,13,57,22.80
2015,07,06,13,58,22.70
2015,07,06,13,59,22.70
2015,07,06,14,00,22.80
2015,07,06,14,01,22.80
2015,07,06,14,02,22.90
2015,07,06,14,03,22.90
2015,07,06,14,04,23.00
2015,07,06,14,05,23.00
2015,07,06,14,06,23.00
2015,07,06,14,07,23.00
2015,07,06,14,08,22.90
2015,07,06,14,09,22.80
2015,07,06,14,10,22.80
2015,07,06,14,11,22.80
2015,07,06,14,12,22.80
2015,07,06,14,13,22.80
2015,07,06,14,14,22.80
2015,07,06,14,15,22.90
2015,07,06,14,16,22.90
2015,07,06,14,17,23.00
2015,07,06,14,18,23.00
2015,07,06,14,19,23.10
2015,07,06,14,20,23.10
2015,07,06,14,21,23.20
2015,07,06,14,22,23.20
2015,07,06,14,23,23.20
2015,07,06,14,24,23.20
2015,07,06,14,25,23.20
2015,07,06,14,26,23.20
2015,07,06,14,27,23.30
2015,07,06,14,28,23.30
2015,07,06,14,29,23.30
2015,07,06,14,30,23.30
2015,07,06,14,31,23.20
2015,07,06,14,32,23.20
2015,07,06,14,33,23.20
2015,07,06,14,34,23.10
2015,07,06,14,35,23.00
2015,07,06,14,36,22.90
2015,07,06,14,37,22.80
2015,07,06,14,38,22.70
2015,07,06,14,39,22.70
2015,07,06,14,40,22.60
2015,07,06,14,41,22.60
2015,07,06,14,42,22.50
2015,07,06,14,43,22.50
2015,07,06,14,44,22.40
2015,07,06,14,45,22.40
2015,07,06,14,46,22.40
2015,07,06,14,47,22.40
2015,07,06,14,48,22.40
2015,07,06,14,49,22.40
2015,07,06,14,50,22.40
2015,07,06,14,51,22.50
2015,07,06,14,52,22.60
2015,07,06,14,53,22.60
2015,07,06,14,54,22.60
2015,07,06,14,55,22.70
2015,07,06,14,56,22.70
2015,07,06,14,57,22.80
2015,07,06,14,58,22.90
2015,07,06,14,59,23.00
2015,07,06,15,00,23.10
2015,07,06,15,01,23.20
2015,07,06,15,02,23.40
2015,07,06,15,03,23.50
2015,07,06,15,04,23.50
2015,07,06,15,05,23.60
2015,07,06,15,06,23.70
2015,07,06,15,07,23.70
2015,07,06,15,08,23.80
2015,07,06,15,09,23.80
2015,07,06,15,10,23.90
2015,07,06,15,11,23.90
2015,07,06,15,12,24.00
2015,07,06,15,13,24.00
2015,07,06,15,14,24.00
2015,07,06,15,15,24.10
2015,07,06,15,16,24.10
2015,07,06,15,17,24.10
2015,07,06,15,18,24.10
2015,07,06,15,19,24.10
2015,07,06,15,20,24.10
2015,07,06,15,21,24.10
2015,07,06,15,22,24.20
2015,07,06,15,23,24.20
2015,07,06,15,24,24.30
2015,07,06,15,25,24.30
2015,07,06,15,26,24.30
2015,07,06,15,27,24.30
2015,07,06,15,28,24.40
2015,07,06,15,29,24.40
2015,07,06,15,30,24.40
2015,07,06,15,31,24.50
2015,07,06,15,32,24.50
2015,07,06,15,33,24.50
2015,07,06,15,34,24.50
2015,07,06,15,35,24.50
2015,07,06,15,36,24.50
2015,07,06,15,37,24.50
2015,07,06,15,38,24.40
2015,07,06,15,39,24.40
2015,07,06,15,40,24.40
2015,07,06,15,41,24.30
2015,07,06,15,42,24.30
2015,07,06,15,43,24.30
2015,07,06,15,44,24.30
2015,07,06,15,45,24.40
2015,07,06,15,46,24.40
2015,07,06,15,47,24.40
2015,07,06,15,48,24.40
2015,07,06,15,49,24.40
2015,07,06,15,50,24.40
2015,07,06,15,51,24.40
2015,07,06,15,52,24.50
2015,07,06,15,53,24.50
2015,07,06,15,54,24.60
2015,07,06,15,55,24.70
2015,07,06,15,56,24.80
2015,07,06,15,57,24.80
2015,07,06,15,58,24.80
2015,07,06,15,59,24.80
2015,07,06,16,00,24.80
2015,07,06,16,01,24.90
2015,07,06,16,02,24.90
2015,07,06,16,03,25.00
2015,07,06,16,04,25.00
2015,07,06,16,05,25.10
2015,07,06,16,06,25.10
2015,07,06,16,07,25.20
2015,07,06,16,08,25.20
2015,07,06,16,09,25.20
2015,07,06,16,10,25.30
2015,07,06,16,11,25.30
2015,07,06,16,12,25.40
2015,07,06,16,13,25.30
2015,07,06,16,14,25.30
2015,07,06,16,15,25.30
2015,07,06,16,16,25.20
2015,07,06,16,17,25.20
2015,07,06,16,18,25.20
2015,07,06,16,19,25.20
2015,07,06,16,20,25.30
2015,07,06,16,21,25.30
2015,07,06,16,22,25.30
2015,07,06,16,23,25.30
2015,07,06,16,24,25.30
2015,07,06,16,25,25.40
2015,07,06,16,26,25.40
2015,07,06,16,27,25.40
2015,07,06,16,28,25.40
2015,07,06,16,29,25.40
2015,07,06,16,30,25.40
2015,07,06,16,31,25.30
2015,07,06,16,32,25.30
2015,07,06,16,33,25.30
2015,07,06,16,34,25.40
2015,07,06,16,35,25.40
2015,07,06,16,36,25.40
2015,07,06,16,37,25.40
2015,07,06,16,38,25.40
2015,07,06,16,39,25.40
2015,07,06,16,40,25.40
2015,07,06,16,41,25.40
2015,07,06,16,42,25.40
2015,07,06,16,43,25.40
2015,07,06,16,44,25.40
2015,07,06,16,45,25.40
2015,07,06,16,46,25.40
2015,07,06,16,47,25.50
2015,07,06,16,48,25.50
2015,07,06,16,49,25.50
2015,07,06,16,50,25.50
2015,07,06,16,51,25.50
2015,07,06,16,52,25.50
2015,07,06,16,53,25.50
2015,07,06,16,54,25.50
2015,07,06,16,55,25.50
2015,07,06,16,56,25.50
2015,07,06,16,57,25.50
2015,07,06,16,58,25.50
2015,07,06,16,59,25.50
2015,07,06,17,00,25.50
2015,07,06,17,01,25.50
2015,07,06,17,02,25.50
2015,07,06,17,03,25.60
2015,07,06,17,04,25.60
2015,07,06,17,05,25.60
2015,07,06,17,06,25.60
2015,07,06,17,07,25.60
2015,07,06,17,08,25.60
2015,07,06,17,09,25.60
2015,07,06,17,10,25.60
2015,07,06,17,11,25.60
2015,07,06,17,12,25.60
2015,07,06,17,13,25.60
2015,07,06,17,14,25.70
2015,07,06,17,15,25.70
2015,07,06,17,16,25.70
2015,07,06,17,17,25.70
2015,07,06,17,18,25.70
2015,07,06,17,19,25.80